Zurück zum Katalog

STARLINK-11738

AktivKommunikationVLEO
NORAD 64375·PAYLOAD·🇺🇸 United States

Gestartet Jun 13, 2025 von Cape Canaveral Space Force Station

Loading…

Nächste Überflüge (nächste 24 Stunden)

TLE

AktuellSource: CelesTrak SupGP

Epoche: Sep 15, 2026, 03:27 UTC

1 64375C 25127F   26258.14423611 -.00090929  00000+0 -70636-3 0  2580
2 64375  43.0011  22.9973 0001761 258.3807 108.8856 15.70879136    10

Verfolge STARLINK-11738 in Echtzeit mit AllMySat

Download on the App Store